Location: Banff
(51.1670°N, 115.5670°W)
Time: 00:38:22
(UTC-06:00)

Amateur Radio Satellites - All Passes

Search period start: 03 August 2015 00:08
Search period end: 04 August 2015 00:08
Location: Banff, 51.1670°N, 115.5670°W

Satellite Date Start Highest point End Downlink Frequencies (MHz)
Time Altitude Azimuth
50 SAT 03 Aug 00:10:36 00:14:21 44° 262° (W) 00:18:10 437.505
SPROUT 03 Aug 00:10:40 00:14:29 33° 66° (ENE) 00:18:20 437.525
VELOX 1 03 Aug 00:12:16 00:16:36 53° 260° (W) 00:20:56 145.980
TISAT 1 03 Aug 00:15:07 00:18:29 24° 63° (ENE) 00:21:56 437.305
DUCHIFAT 1 03 Aug 00:19:45 00:23:21 26° 94° (E) 00:26:58 145.980
QB50P1 03 Aug 00:24:28 00:28:14 30° 95° (E) 00:32:03 145.935-145.965
AUBIESAT-1 03 Aug 00:24:44 00:29:27 61° 295° (WNW) 00:34:04 437.475
NANOSAT C BR1 03 Aug 00:24:52 00:28:38 30° 95° (E) 00:32:25 145.865
PHONESAT 2.4 03 Aug 00:30:26 00:30:59 10° 197° (SSW) 00:31:29 2401.200-2431.200
ESTCUBE 1 03 Aug 00:31:43 00:36:09 49° 261° (W) 00:40:34 437.505/2401.250
SWISSCUBE 03 Aug 00:33:05 00:34:50 12° 52° (NE) 00:36:46 437.505
BEESAT 2 03 Aug 00:39:14 00:43:12 48° 124° (SE) 00:47:12 435.950
TIGRISAT 03 Aug 00:42:11 00:46:54 83° 284° (WNW) 00:51:37 435.000
ANTELSAT 03 Aug 00:44:53 00:49:35 77° 287° (WNW) 00:54:19 437.575/2403.000
AIST 2 03 Aug 00:48:53 00:51:46 18° 114° (ESE) 00:54:45 435.215
ITUPSAT 1 03 Aug 00:53:47 00:56:37 16° 55° (NE) 00:59:35 437.325
RS-15 03 Aug 00:56:52 01:07:45 56° 330° (NNW) 01:19:09 29.354- 29.394
UKube-1 03 Aug 00:57:46 01:00:15 15° 273° (W) 01:02:35 .
O/OREOS (USA 219) 03 Aug 01:07:26 01:08:32 11° 98° (E) 01:09:51 437.305
POLYITAN 1 03 Aug 01:08:23 01:12:41 81° 104° (ESE) 01:16:59 437.675
AISAT 03 Aug 01:12:26 01:15:12 16° 272° (W) 01:17:50 437.250
AIST 1 03 Aug 01:15:38 01:18:27 17° 274° (W) 01:21:07
BEESAT 3 03 Aug 01:16:04 01:20:09 69° 314° (NW) 01:24:16 437.485
BUGSAT 1 03 Aug 01:18:01 01:22:05 64° 102° (ESE) 01:26:09 437.445
CUBEBUG 1 03 Aug 01:19:22 01:22:46 21° 269° (W) 01:26:05 437.445
Cosmos 2491 03 Aug 01:22:49 01:31:05 48° 271° (W) 01:39:14 435.465 / 435.565
POPSAT HIP 1 03 Aug 01:24:40 01:28:56 73° 287° (WNW) 01:33:11 437.405
M-CUBED/EXP-1 PRIME 03 Aug 01:32:50 01:36:11 19° 309° (NW) 01:39:25 437.505
QB50P2 03 Aug 01:32:54 01:37:08 59° 289° (WNW) 01:41:20 145.880/145.840
UNISAT 6 03 Aug 01:36:49 01:40:52 29° 296° (WNW) 01:44:54 437.425
ISS 03 Aug 01:36:53 01:40:10 90° 208° (SSW) 01:43:27 145.825
BEESAT 03 Aug 01:46:34 01:51:01 40° 66° (ENE) 01:55:31 436.000
SPROUT 03 Aug 01:46:43 01:50:34 32° 265° (W) 01:54:25 437.525
YUBILEINY 03 Aug 01:48:32 01:57:16 87° 279° (W) 02:06:08 435.215
TISAT 1 03 Aug 01:50:04 01:54:04 42° 262° (W) 01:58:05 437.305
DUCHIFAT 1 03 Aug 01:55:18 01:59:16 39° 292° (WNW) 02:03:13 145.980
Cosmos 2504 03 Aug 01:58:22 02:02:33 17° 73° (ENE) 02:07:14 435.465 / 435.565
QB50P1 03 Aug 02:00:16 02:04:08 34° 294° (WNW) 02:07:59 145.935-145.965
NANOSAT C BR1 03 Aug 02:00:38 02:04:30 34° 293° (WNW) 02:08:20 145.865
AUBIESAT-1 03 Aug 02:00:57 02:03:19 14° 314° (NW) 02:05:31 437.475
SWISSCUBE 03 Aug 02:07:07 02:11:51 63° 70° (ENE) 02:16:38 437.505
KKS-1 03 Aug 02:07:41 02:09:57 14° 56° (NE) 02:12:22 437.445
BEESAT 2 03 Aug 02:17:41 02:21:25 32° 325° (NW) 02:25:10 435.950
TIGRISAT 03 Aug 02:20:20 02:22:59 15° 304° (NW) 02:25:32 435.000
ANTELSAT 03 Aug 02:23:12 02:25:40 14° 305° (NW) 02:27:58 437.575/2403.000
AIST 2 03 Aug 02:25:37 02:29:53 74° 312° (NW) 02:34:11 435.215
ITUPSAT 1 03 Aug 02:29:03 02:33:53 87° 71° (ENE) 02:38:44 437.325
O/OREOS (USA 219) 03 Aug 02:42:44 02:47:13 78° 116° (ESE) 02:51:46 437.305
Oscar 19 03 Aug 02:45:08 02:49:55 37° 96° (E) 02:54:45 437.125/150
POLYITAN 1 03 Aug 02:45:30 02:48:03 15° 302° (WNW) 02:50:31 437.675
BUGSAT 1 03 Aug 02:54:27 02:57:09 17° 300° (WNW) 02:59:47 437.445
BEESAT 3 03 Aug 02:55:47 02:58:48 19° 336° (NNW) 03:01:47 437.485
POPSAT HIP 1 03 Aug 03:02:32 03:04:06 12° 305° (NW) 03:05:29 437.405
STARS 03 Aug 03:10:05 03:13:51 30° 64° (ENE) 03:17:42 437.465
RS-15 03 Aug 03:12:23 03:22:57 42° 2° (N) 03:34:02 29.354- 29.394
ISS 03 Aug 03:13:25 03:16:25 33° 209° (SSW) 03:19:23 145.825
MOZHAYETS 4 03 Aug 03:15:19 03:15:51 10° 51° (NE) 03:16:35
Cosmos 2491 03 Aug 03:24:08 03:25:50 10° 294° (WNW) 03:26:56 435.465 / 435.565
BEESAT 03 Aug 03:24:39 03:28:58 32° 265° (W) 03:33:15 436.000
KKS-1 03 Aug 03:41:32 03:45:58 86° 76° (ENE) 03:50:26 437.445
Cosmos 2504 03 Aug 03:46:08 03:53:21 74° 96° (E) 04:01:13 435.465 / 435.565
SWISSCUBE 03 Aug 03:46:33 03:50:10 20° 270° (W) 03:53:40 437.505
YUBILEINY 03 Aug 03:48:32 03:55:38 26° 306° (NW) 04:02:34 435.215
JAS-2 03 Aug 03:54:06 04:00:48 31° 88° (E) 04:07:36 435.910
AO-7 03 Aug 03:58:15 04:02:23 15° 80° (E) 04:06:59 29.400- 29.500
BEESAT 2 03 Aug 03:58:26 04:00:39 14° 348° (NNW) 04:02:49 435.950
Gurwin Techsat 1B 03 Aug 04:01:04 04:06:18 54° 100° (E) 04:11:31 435.225
AIST 2 03 Aug 04:05:51 04:09:09 21° 335° (NNW) 04:12:24 435.215
ITUPSAT 1 03 Aug 04:09:46 04:12:31 15° 274° (W) 04:15:04 437.325
ITAMSAT 1 03 Aug 04:10:44 04:15:52 57° 101° (E) 04:20:58 435.822/435.867
O/OREOS (USA 219) 03 Aug 04:23:51 04:27:14 20° 318° (NW) 04:30:35 437.305
Oscar 19 03 Aug 04:24:32 04:29:19 38° 295° (WNW) 04:34:05 437.125/150
CUSAT 1 03 Aug 04:25:37 04:26:51 13° 92° (E) 04:28:10 437.405
HORYU 2 03 Aug 04:35:11 04:37:57 16° 88° (E) 04:40:51 437.375
BEESAT 3 03 Aug 04:36:31 04:38:12 12° 359° (N) 04:39:53 437.485
GONETS M04 03 Aug 04:42:33 04:44:14 11° 67° (ENE) 04:46:33
STARS 03 Aug 04:46:08 04:50:14 37° 263° (W) 04:54:19 437.465
MOZHAYETS 4 03 Aug 04:47:38 04:52:10 55° 70° (ENE) 04:56:45
CUBESAT XI-V 03 Aug 05:13:24 05:15:43 14° 55° (NE) 05:18:10 437.345
KKS-1 03 Aug 05:21:08 05:23:18 13° 274° (W) 05:25:18 437.445
RS-15 03 Aug 05:26:36 05:38:02 61° 34° (NE) 05:50:00 29.354- 29.394
BEESAT 2 03 Aug 05:38:09 05:40:17 14° 12° (NNE) 05:42:26 435.950
JAS-2 03 Aug 05:38:42 05:46:31 75° 289° (WNW) 05:54:18 435.910
Cosmos 2504 03 Aug 05:40:09 05:46:31 29° 301° (WNW) 05:53:09 435.465 / 435.565
Gurwin Techsat 1B 03 Aug 05:41:30 05:46:03 29° 299° (WNW) 05:50:30 435.225
AIST 2 03 Aug 05:47:11 05:49:12 13° 359° (N) 05:51:12 435.215
AO-7 03 Aug 05:48:55 05:57:12 63° 104° (ESE) 06:05:27 29.400- 29.500
ITAMSAT 1 03 Aug 05:50:46 05:55:06 27° 300° (WNW) 05:59:20 435.822/435.867
DANDE 03 Aug 06:02:28 06:05:12 43° 285° (WNW) 06:07:43 436.750
CUSAT 1 03 Aug 06:07:06 06:09:13 21° 292° (WNW) 06:11:20 437.405
HORYU 2 03 Aug 06:10:37 06:15:08 72° 289° (WNW) 06:19:38 437.375
BEESAT 3 03 Aug 06:14:44 06:17:38 18° 23° (NNE) 06:20:32 437.485
MOZHAYETS 4 03 Aug 06:26:07 06:29:45 22° 270° (W) 06:33:19
GONETS M04 03 Aug 06:30:51 06:39:03 50° 89° (E) 06:47:19
STRAND 1 03 Aug 06:34:38 06:38:54 28° 61° (ENE) 06:43:15 437.568
Cubesat XI-IV 03 Aug 06:40:25 06:42:54 14° 83° (E) 06:45:38 437.490
Cosmos 2499 03 Aug 06:43:46 06:47:23 15° 71° (ENE) 06:51:34 435.465 / 435.565
CUBESAT XI-V 03 Aug 06:47:48 06:52:28 79° 74° (ENE) 06:57:09 437.345
PRISM 03 Aug 06:55:26 06:58:59 28° 64° (ENE) 07:02:35 437.425
BEESAT 2 03 Aug 07:15:50 07:19:31 31° 34° (NE) 07:23:11 435.950
JAS-2 03 Aug 07:24:38 07:30:31 24° 310° (NW) 07:36:17 435.910
AIST 2 03 Aug 07:26:14 07:29:17 19° 22° (NNE) 07:32:21 435.215
CUTE-I 03 Aug 07:34:04 07:38:57 36° 95° (E) 07:43:50 437.470
RS-15 03 Aug 07:39:24 07:50:50 62° 240° (WSW) 08:02:37 29.354- 29.394
AO-7 03 Aug 07:42:05 07:49:46 42° 306° (NW) 07:57:20 29.400- 29.500
HORYU 2 03 Aug 07:49:03 07:51:03 13° 306° (NW) 07:52:53 437.375
BEESAT 3 03 Aug 07:52:15 07:56:20 63° 46° (NE) 08:00:19 437.485
AUBIESAT-1 03 Aug 08:11:08 08:12:38 12° 44° (NE) 08:14:20 437.475
STRAND 1 03 Aug 08:12:49 08:17:52 54° 260° (W) 08:22:56 437.568
Cubesat XI-IV 03 Aug 08:18:38 08:24:00 79° 103° (ESE) 08:29:21 437.490
BRITE-PL 03 Aug 08:25:01 08:27:48 17° 89° (E) 08:30:49 437.365/2234.400
GOMX 1 03 Aug 08:25:26 08:26:24 11° 84° (E) 08:27:39 467.674
GONETS M04 03 Aug 08:27:42 08:36:04 48° 293° (WNW) 08:44:23
CUBESAT XI-V 03 Aug 08:27:43 08:30:34 15° 274° (W) 08:33:13 437.345
PRISM 03 Aug 08:30:24 08:34:19 37° 263° (W) 08:38:13 437.425
Cosmos 2499 03 Aug 08:31:27 08:38:53 64° 93° (E) 08:47:00 435.465 / 435.565
HO-68 03 Aug 08:51:46 08:56:04 17° 83° (E) 09:00:42 435.675
BEESAT 2 03 Aug 08:53:47 08:57:46 50° 235° (SW) 09:01:40 435.950
AIST 2 03 Aug 09:04:26 09:08:39 63° 45° (NE) 09:12:47 435.215
CUTE 1.7 + AOD 2 03 Aug 09:12:10 09:14:25 14° 86° (E) 09:16:49 437.475
CUTE-I 03 Aug 09:14:08 09:19:08 41° 295° (WNW) 09:24:04 437.470
M-CUBED/EXP-1 PRIME 03 Aug 09:15:31 09:19:27 37° 59° (ENE) 09:23:43 437.505
PCSat 03 Aug 09:17:48 09:22:17 28° 112° (ESE) 09:26:53 145.827
CANX-2 03 Aug 09:20:23 09:23:23 19° 89° (E) 09:26:29 2200.000
AAUSAT CUBESAT 2 03 Aug 09:26:51 09:27:46 11° 84° (E) 09:28:55 437.432
O/OREOS (USA 219) 03 Aug 09:30:15 09:32:23 13° 34° (NE) 09:34:39 437.305
UNISAT 6 03 Aug 09:30:28 09:32:02 12° 53° (NE) 09:33:47 437.425
CINEMA 3 03 Aug 09:30:43 09:33:18 15° 86° (E) 09:36:08 145.822/145.860
BEESAT 3 03 Aug 09:30:52 09:33:54 20° 244° (WSW) 09:36:48 437.485
SO-50 03 Aug 09:31:36 09:35:29 25° 116° (ESE) 09:39:32 436.795
AO-7 03 Aug 09:35:57 09:40:30 16° 330° (NNW) 09:44:49 29.400- 29.500
DOVE 4 03 Aug 09:37:47 09:41:55 32° 95° (E) 09:46:18 437.250
AUBIESAT-1 03 Aug 09:42:14 09:46:24 56° 64° (ENE) 09:50:54 437.475
CUBEBUG 2 03 Aug 09:47:28 09:47:50 10° 82° (E) 09:48:29 437.445
RS-15 03 Aug 09:53:56 10:01:07 18° 263° (W) 10:07:40 29.354- 29.394
YUBILEINY 03 Aug 09:56:10 10:01:56 19° 46° (NE) 10:08:01 435.215
Cubesat XI-IV 03 Aug 09:59:37 10:03:35 21° 304° (NW) 10:07:26 437.490
GOMX 1 03 Aug 10:00:50 10:05:21 76° 104° (ESE) 10:10:09 467.674
BRITE-PL 03 Aug 10:02:28 10:06:49 67° 286° (WNW) 10:11:25 437.365/2234.400
TIGRISAT 03 Aug 10:10:27 10:13:56 24° 61° (ENE) 10:17:33 435.000
ANTELSAT 03 Aug 10:13:09 10:16:46 26° 62° (ENE) 10:20:32 437.575/2403.000
COMPASS 1 03 Aug 10:20:43 10:24:45 41° 97° (E) 10:28:45 437.405
Cosmos 2499 03 Aug 10:25:44 10:32:43 35° 299° (WNW) 10:40:06 435.465 / 435.565
DELFI C3 03 Aug 10:29:53 10:32:11 15° 87° (E) 10:34:37 145.870
GONETS M04 03 Aug 10:31:26 10:35:50 14° 321° (NW) 10:39:53
ZACube-1 03 Aug 10:31:39 10:34:33 17° 87° (E) 10:37:37 437.345
POLYITAN 1 03 Aug 10:32:15 10:34:56 17° 59° (ENE) 10:37:44 437.675
HO-68 03 Aug 10:37:58 10:45:11 75° 105° (ESE) 10:52:24 435.675
SEEDS 03 Aug 10:39:43 10:44:01 78° 103° (ESE) 10:48:16 437.485
BUGSAT 1 03 Aug 10:40:17 10:42:00 13° 57° (ENE) 10:43:51 437.445
AIST 2 03 Aug 10:43:38 10:46:52 21° 244° (WSW) 10:49:58 435.215
CUTE 1.7 + AOD 2 03 Aug 10:46:36 10:50:55 76° 287° (WNW) 10:55:12 437.475
POPSAT HIP 1 03 Aug 10:47:39 10:50:52 22° 62° (ENE) 10:54:11 437.405
M-CUBED/EXP-1 PRIME 03 Aug 10:50:27 10:54:17 32° 260° (W) 10:58:21 437.505
FUNcube-1 03 Aug 10:51:41 10:55:23 25° 92° (E) 10:59:10 145.935
CANX-2 03 Aug 10:55:27 10:59:42 57° 289° (WNW) 11:03:55 2200.000
QB50P2 03 Aug 10:55:37 10:59:07 27° 64° (ENE) 11:02:43 145.880/145.840
HUMSAT D 03 Aug 10:58:48 11:00:46 13° 85° (E) 11:02:54 437.325/437.525
AAUSAT CUBESAT 2 03 Aug 10:59:54 11:04:09 86° 104° (ESE) 11:08:20 437.432
PCSat 03 Aug 11:00:00 11:05:23 63° 312° (NW) 11:10:49 145.827
Oscar 11 03 Aug 11:00:01 11:04:11 42° 97° (E) 11:08:20 145.826/435.025
UWE-3 03 Aug 11:00:12 11:04:30 37° 96° (E) 11:08:51 435.000/436.395/437.385
UNISAT 6 03 Aug 11:03:38 11:08:00 69° 73° (ENE) 11:12:32 437.425
CINEMA 3 03 Aug 11:06:26 11:11:08 85° 285° (WNW) 11:16:01 145.822/145.860
O/OREOS (USA 219) 03 Aug 11:08:23 11:12:55 55° 57° (ENE) 11:17:26 437.305
SO-50 03 Aug 11:10:51 11:15:41 66° 316° (NW) 11:20:38 436.795
DOVE 4 03 Aug 11:15:31 11:19:45 38° 292° (WNW) 11:24:10 437.250
DUCHIFAT 1 03 Aug 11:16:51 11:20:42 38° 68° (ENE) 11:24:38 145.980
AUBIESAT-1 03 Aug 11:18:10 11:21:30 21° 265° (W) 11:24:54 437.475
CUBEBUG 2 03 Aug 11:20:48 11:25:27 70° 102° (ESE) 11:30:11 437.445
QB50P1 03 Aug 11:21:57 11:25:55 44° 69° (ENE) 11:29:58 145.935-145.965
NANOSAT C BR1 03 Aug 11:22:08 11:26:06 43° 69° (ENE) 11:30:08 145.865
DX 1 03 Aug 11:34:17 11:37:20 19° 90° (E) 11:40:29 434.975-435.025
Cosmos 2504 03 Aug 11:35:51 11:37:44 11° 37° (NE) 11:40:03 435.465 / 435.565
GOMX 1 03 Aug 11:40:05 11:43:05 17° 300° (WNW) 11:46:04 467.674
50 SAT 03 Aug 11:41:36 11:44:00 16° 88° (E) 11:46:30 437.505
BRITE-PL 03 Aug 11:43:28 11:44:42 11° 305° (NW) 11:45:46 437.365/2234.400
TIGRISAT 03 Aug 11:46:07 11:50:24 51° 261° (W) 11:54:49 435.000
ANTELSAT 03 Aug 11:49:05 11:53:20 46° 262° (W) 11:57:43 437.575/2403.000
YUBILEINY 03 Aug 11:52:14 12:01:02 64° 73° (ENE) 12:09:49 435.215
COMPASS 1 03 Aug 11:56:42 12:00:15 26° 296° (WNW) 12:03:44 437.405
VELOX 1 03 Aug 11:58:00 12:01:15 20° 90° (E) 12:04:35 145.980
DELFI C3 03 Aug 12:03:41 12:07:44 65° 287° (WNW) 12:11:44 145.870
POLYITAN 1 03 Aug 12:06:12 12:10:23 69° 257° (WSW) 12:14:38 437.675
ZACube-1 03 Aug 12:06:53 12:11:25 70° 288° (WNW) 12:16:00 437.345
AIST 1 03 Aug 12:12:13 12:15:47 26° 89° (E) 12:19:24
BUGSAT 1 03 Aug 12:12:51 12:16:54 89° 76° (ENE) 12:20:57 437.445
SEEDS 03 Aug 12:16:39 12:19:18 16° 301° (WNW) 12:21:48 437.485
ESTCUBE 1 03 Aug 12:19:28 12:23:07 24° 92° (E) 12:26:49 437.505/2401.250
POPSAT HIP 1 03 Aug 12:22:24 12:26:29 49° 261° (W) 12:30:36 437.405
CUTE 1.7 + AOD 2 03 Aug 12:24:22 12:26:09 12° 304° (NW) 12:27:46 437.475
HO-68 03 Aug 12:26:18 12:32:26 31° 306° (NW) 12:38:27 435.675
FUNcube-1 03 Aug 12:27:33 12:31:56 47° 290° (WNW) 12:36:19 145.935
Cosmos 2499 03 Aug 12:28:09 12:29:18 10° 328° (NNW) 12:30:05 435.465 / 435.565
Oscar 19 03 Aug 12:30:16 12:33:29 17° 55° (NE) 12:36:51 437.125/150
QB50P2 03 Aug 12:30:54 12:34:53 39° 262° (W) 12:38:53 145.880/145.840
HUMSAT D 03 Aug 12:32:48 12:37:09 84° 285° (WNW) 12:41:30 437.325/437.525
Cosmos 2491 03 Aug 12:33:34 12:41:41 46° 88° (E) 12:49:51 435.465 / 435.565
Oscar 11 03 Aug 12:36:30 12:40:13 27° 296° (WNW) 12:43:50 145.826/435.025
UWE-3 03 Aug 12:36:51 12:40:58 32° 294° (WNW) 12:45:05 435.000/436.395/437.385
AAUSAT CUBESAT 2 03 Aug 12:36:51 12:39:11 14° 302° (WNW) 12:41:22 437.432
UKube-1 03 Aug 12:37:28 12:41:48 66° 103° (ESE) 12:46:06 .
UNISAT 6 03 Aug 12:42:28 12:45:21 16° 273° (W) 12:48:10 437.425
CINEMA 3 03 Aug 12:45:02 12:47:45 15° 303° (WNW) 12:50:22 145.822/145.860
PCSat 03 Aug 12:45:41 12:49:53 22° 336° (NNW) 12:54:02 145.827
O/OREOS (USA 219) 03 Aug 12:48:25 12:52:02 23° 256° (WSW) 12:55:34 437.305
DUCHIFAT 1 03 Aug 12:53:04 12:56:38 26° 267° (W) 13:00:11 145.980
SO-50 03 Aug 12:53:08 12:57:06 23° 339° (NNW) 13:01:05 436.795
AISAT 03 Aug 12:55:28 12:59:54 70° 103° (ESE) 13:04:18 437.250
CUBEBUG 2 03 Aug 12:58:22 13:01:42 20° 300° (WNW) 13:05:00 437.445
QB50P1 03 Aug 12:58:37 13:02:01 23° 268° (W) 13:05:21 145.935-145.965
NANOSAT C BR1 03 Aug 12:58:45 13:02:09 23° 268° (W) 13:05:30 145.865
CUBEBUG 1 03 Aug 13:01:37 13:05:50 49° 99° (E) 13:10:03 437.445
DX 1 03 Aug 13:09:42 13:13:58 57° 290° (WNW) 13:18:14 434.975-435.025
AO-7 03 Aug 13:14:49 13:18:50 15° 28° (NNE) 13:23:04 29.400- 29.500
50 SAT 03 Aug 13:15:02 13:18:59 60° 288° (WNW) 13:22:54 437.505
Cosmos 2504 03 Aug 13:25:26 13:33:02 38° 64° (ENE) 13:40:58 435.465 / 435.565
SPROUT 03 Aug 13:27:42 13:31:32 31° 95° (E) 13:35:24 437.525
TISAT 1 03 Aug 13:29:35 13:32:45 21° 91° (E) 13:36:00 437.305
VELOX 1 03 Aug 13:33:50 13:38:09 54° 290° (WNW) 13:42:28 145.980
ZACube-1 03 Aug 13:45:07 13:47:03 12° 305° (NW) 13:48:50 437.345
Gurwin Techsat 1B 03 Aug 13:48:54 13:53:11 26° 59° (ENE) 13:57:33 435.225
AIST 1 03 Aug 13:49:15 13:53:19 37° 288° (WNW) 13:57:21
YUBILEINY 03 Aug 13:49:37 13:57:29 37° 276° (W) 14:05:11 435.215
BUGSAT 1 03 Aug 13:51:59 13:53:04 11° 275° (W) 13:53:56 437.445
ITAMSAT 1 03 Aug 13:55:48 14:00:01 26° 60° (ENE) 14:04:20 435.822/435.867
ESTCUBE 1 03 Aug 13:55:54 14:00:15 46° 291° (WNW) 14:04:31 437.505/2401.250
SWISSCUBE 03 Aug 14:04:45 14:05:50 11° 83° (E) 14:07:10 437.505
Oscar 19 03 Aug 14:07:04 14:12:12 87° 75° (ENE) 14:17:24 437.125/150
HUMSAT D 03 Aug 14:10:05 14:12:15 13° 303° (WNW) 14:14:17 437.325/437.525
JAS-2 03 Aug 14:12:45 14:17:51 25° 51° (NE) 14:23:32 435.910
UKube-1 03 Aug 14:14:29 14:17:31 18° 301° (WNW) 14:20:26 .
HO-68 03 Aug 14:17:38 14:18:03 10° 330° (NNW) 14:18:13 435.675
ITUPSAT 1 03 Aug 14:25:40 14:28:28 16° 87° (E) 14:31:26 437.325
Cosmos 2491 03 Aug 14:30:01 14:38:33 52° 291° (WNW) 14:47:01 435.465 / 435.565
PCSat 03 Aug 14:32:16 14:35:19 15° 1° (N) 14:38:24 145.827
AISAT 03 Aug 14:32:59 14:36:02 18° 301° (WNW) 14:38:59 437.250
SO-50 03 Aug 14:35:57 14:39:16 17° 3° (N) 14:42:36 436.795
CUBEBUG 1 03 Aug 14:38:29 14:41:57 23° 298° (WNW) 14:45:20 437.445
GONETS M04 03 Aug 14:41:07 14:41:10 10° 30° (NNE) 14:41:37
DANDE 03 Aug 14:51:21 14:53:50 17° 68° (ENE) 14:56:52 436.750
CUSAT 1 03 Aug 14:51:40 14:55:12 29° 71° (ENE) 14:59:43 437.405
AO-7 03 Aug 15:01:59 15:09:26 38° 52° (NE) 15:16:58 29.400- 29.500
SPROUT 03 Aug 15:03:44 15:07:39 34° 294° (WNW) 15:11:32 437.525
TISAT 1 03 Aug 15:04:43 15:08:48 49° 290° (WNW) 15:12:53 437.305
Cosmos 2504 03 Aug 15:17:32 15:25:49 65° 267° (W) 15:34:17 435.465 / 435.565
BEESAT 03 Aug 15:18:57 15:23:33 45° 99° (E) 15:28:08 436.000
Gurwin Techsat 1B 03 Aug 15:27:34 15:32:50 62° 258° (WSW) 15:38:08 435.225
KKS-1 03 Aug 15:29:24 15:30:57 12° 85° (E) 15:32:43 437.445
ITAMSAT 1 03 Aug 15:34:05 15:39:13 59° 258° (WSW) 15:44:24 435.822/435.867
HORYU 2 03 Aug 15:37:58 15:41:45 29° 63° (ENE) 15:45:39 437.375
SWISSCUBE 03 Aug 15:39:52 15:44:40 74° 104° (ESE) 15:49:26 437.505
Oscar 19 03 Aug 15:49:13 15:52:21 16° 274° (W) 15:55:20 437.125/150
JAS-2 03 Aug 15:55:33 16:01:59 88° 71° (ENE) 16:09:20 435.910
ITUPSAT 1 03 Aug 16:02:13 16:07:03 80° 286° (WNW) 16:11:48 437.325
PCSat 03 Aug 16:16:24 16:20:43 23° 27° (NNE) 16:25:03 145.827
SO-50 03 Aug 16:17:02 16:21:19 28° 27° (NNE) 16:25:37 436.795
Cosmos 2499 03 Aug 16:24:40 16:26:48 11° 34° (NE) 16:29:23 435.465 / 435.565
STARS 03 Aug 16:30:26 16:34:14 27° 94° (E) 16:38:04 437.465
Cosmos 2491 03 Aug 16:33:11 16:38:09 15° 319° (NW) 16:42:45 435.465 / 435.565
DANDE 03 Aug 16:33:27 16:37:01 50° 260° (W) 16:41:43 436.750
CUSAT 1 03 Aug 16:33:56 16:37:45 36° 262° (W) 16:42:38 437.405
GONETS M04 03 Aug 16:34:04 16:41:45 34° 60° (ENE) 16:49:35
AO-7 03 Aug 16:53:29 17:01:50 69° 254° (WSW) 17:10:14 29.400- 29.500
BEESAT 03 Aug 16:57:06 17:01:14 29° 298° (WNW) 17:05:18 436.000
KKS-1 03 Aug 17:03:52 17:08:22 86° 106° (ESE) 17:12:51 437.445
Cosmos 2504 03 Aug 17:11:44 17:16:36 16° 287° (WNW) 17:21:07 435.465 / 435.565
HORYU 2 03 Aug 17:14:03 17:18:17 41° 262° (W) 17:22:32 437.375
SWISSCUBE 03 Aug 17:18:37 17:22:03 20° 302° (WNW) 17:25:22 437.505
CUTE-I 03 Aug 17:23:18 17:26:56 19° 55° (NE) 17:30:43 437.470
ITUPSAT 1 03 Aug 17:41:32 17:44:15 15° 306° (NW) 17:46:48 437.325
JAS-2 03 Aug 17:43:20 17:48:16 21° 278° (W) 17:53:23 435.910
SO-50 03 Aug 17:57:27 18:02:28 88° 229° (SW) 18:07:23 436.795
PCSat 03 Aug 17:59:37 18:05:05 72° 51° (NE) 18:10:30 145.827
Cubesat XI-IV 03 Aug 18:06:36 18:11:29 38° 64° (ENE) 18:16:25 437.490
STARS 03 Aug 18:06:38 18:10:48 40° 293° (WNW) 18:14:57 437.465
MOZHAYETS 4 03 Aug 18:14:31 18:19:09 65° 101° (ESE) 18:23:45
Cosmos 2499 03 Aug 18:15:28 18:23:18 37° 62° (ENE) 18:31:26 435.465 / 435.565
GONETS M04 03 Aug 18:30:48 18:39:29 71° 265° (W) 18:48:08
CUBESAT XI-V 03 Aug 18:40:44 18:43:03 14° 85° (E) 18:45:34 437.345
KKS-1 03 Aug 18:41:44 18:44:27 16° 303° (WNW) 18:47:03 437.445
AO-7 03 Aug 18:51:07 18:56:27 17° 278° (W) 19:01:22 29.400- 29.500
CUTE-I 03 Aug 19:01:02 19:06:25 88° 254° (WSW) 19:11:50 437.470
HO-68 03 Aug 19:26:06 19:31:41 26° 50° (NE) 19:37:25 435.675
VERMONT LUNAR 03 Aug 19:29:54 19:30:50 11° 170° (S) 19:31:49 437.305
GOMX 1 03 Aug 19:38:10 19:41:04 19° 61° (ENE) 19:44:05 467.674
SO-50 03 Aug 19:39:10 19:42:24 17° 248° (WSW) 19:45:27 436.795
BRITE-PL 03 Aug 19:41:08 19:44:51 31° 66° (ENE) 19:48:33 437.365/2234.400
PCSat 03 Aug 19:43:45 19:48:03 24° 250° (WSW) 19:52:15 145.827
Cubesat XI-IV 03 Aug 19:46:32 19:51:35 40° 263° (W) 19:56:38 437.490
MOZHAYETS 4 03 Aug 19:52:32 19:55:58 20° 300° (WNW) 19:59:18
SEEDS 03 Aug 20:02:56 20:05:25 16° 58° (ENE) 20:08:00 437.485
RS-15 03 Aug 20:05:18 20:09:14 13° 94° (E) 20:14:06 29.354- 29.394
PRISM 03 Aug 20:07:43 20:10:49 21° 92° (E) 20:13:58 437.425
Cosmos 2499 03 Aug 20:08:31 20:17:11 69° 265° (W) 20:25:58 435.465 / 435.565
CUTE 1.7 + AOD 2 03 Aug 20:09:43 20:12:52 21° 62° (ENE) 20:16:08 437.475
CUBESAT XI-V 03 Aug 20:16:34 20:21:13 84° 287° (WNW) 20:25:49 437.345
CANX-2 03 Aug 20:18:05 20:21:38 26° 64° (ENE) 20:25:16 2200.000
STRAND 1 03 Aug 20:18:06 20:22:45 35° 95° (E) 20:27:25 437.568
AAUSAT CUBESAT 2 03 Aug 20:21:48 20:24:21 16° 59° (ENE) 20:27:01 437.432
Oscar 11 03 Aug 20:27:46 20:28:25 10° 53° (NE) 20:29:15 145.826/435.025
GONETS M04 03 Aug 20:29:24 20:34:52 18° 287° (WNW) 20:39:57
CINEMA 3 03 Aug 20:37:41 20:40:54 22° 62° (ENE) 20:44:16 145.822/145.860
CUTE-I 03 Aug 20:44:07 20:47:22 16° 275° (W) 20:50:25 437.470
DOVE 4 03 Aug 20:48:52 20:52:53 52° 71° (ENE) 20:57:00 437.250
CUBEBUG 2 03 Aug 20:49:43 20:52:16 16° 58° (ENE) 20:54:59 437.445
VERMONT LUNAR 03 Aug 21:05:26 21:06:44 12° 187° (S) 21:08:02 437.305
HO-68 03 Aug 21:11:31 21:18:41 90° 249° (WSW) 21:25:55 435.675
GOMX 1 03 Aug 21:14:49 21:18:55 55° 260° (W) 21:23:02 467.674
COMPASS 1 03 Aug 21:16:32 21:20:39 54° 71° (ENE) 21:24:49 437.405
BRITE-PL 03 Aug 21:19:36 21:23:26 31° 265° (W) 21:27:09 437.365/2234.400
DELFI C3 03 Aug 21:21:47 21:24:43 20° 62° (ENE) 21:27:44 145.870
ISS 03 Aug 21:31:59 21:34:34 22° 146° (SE) 21:37:12 145.825
ZACube-1 03 Aug 21:32:36 21:36:00 24° 62° (ENE) 21:39:32 437.345
SEEDS 03 Aug 21:36:24 21:40:40 80° 256° (WSW) 21:44:59 437.485
PRISM 03 Aug 21:42:32 21:46:32 47° 291° (WNW) 21:50:27 437.425
CUTE 1.7 + AOD 2 03 Aug 21:44:15 21:48:28 55° 260° (W) 21:52:44 437.475
FUNcube-1 03 Aug 21:52:22 21:56:12 34° 66° (ENE) 22:00:11 145.935
CANX-2 03 Aug 21:53:20 21:57:24 41° 263° (W) 22:01:31 2200.000
AAUSAT CUBESAT 2 03 Aug 21:55:15 21:59:28 74° 257° (WSW) 22:03:43 437.432
HUMSAT D 03 Aug 21:55:16 21:58:08 19° 60° (ENE) 22:01:09 437.325/437.525
CUBESAT XI-V 03 Aug 21:55:27 21:58:00 14° 304° (NW) 22:00:24 437.345
STRAND 1 03 Aug 21:57:17 22:02:03 40° 295° (WNW) 22:06:46 437.568
Oscar 11 03 Aug 21:59:30 22:03:47 62° 72° (ENE) 22:08:08 145.826/435.025
UWE-3 03 Aug 22:02:21 22:06:28 53° 71° (ENE) 22:10:47 435.000/436.395/437.385
UKube-1 03 Aug 22:03:03 22:05:45 17° 58° (ENE) 22:08:33 .
Cosmos 2499 03 Aug 22:03:25 22:08:59 18° 286° (WNW) 22:14:10 435.465 / 435.565
PHONESAT 2.4 03 Aug 22:07:12 22:09:13 15° 177° (S) 22:11:15 2401.200-2431.200
RS-15 03 Aug 22:08:36 22:19:00 55° 117° (ESE) 22:29:56 29.354- 29.394
CINEMA 3 03 Aug 22:13:46 22:17:50 49° 261° (W) 22:22:03 145.822/145.860
AIST 1 03 Aug 22:14:32 22:16:26 13° 59° (ENE) 22:18:30
AISAT 03 Aug 22:23:27 22:26:22 18° 59° (ENE) 22:29:24 437.250
CUBEBUG 2 03 Aug 22:24:10 22:28:24 78° 257° (WSW) 22:32:49 437.445
M-CUBED/EXP-1 PRIME 03 Aug 22:26:58 22:29:39 15° 91° (E) 22:32:29 437.505
DOVE 4 03 Aug 22:28:07 22:31:05 18° 271° (W) 22:33:59 437.250
CUBEBUG 1 03 Aug 22:29:23 22:31:09 13° 55° (NE) 22:33:05 437.445
50 SAT 03 Aug 22:30:16 22:33:02 19° 62° (ENE) 22:35:54 437.505
DX 1 03 Aug 22:34:30 22:38:21 32° 65° (ENE) 22:42:13 434.975-435.025
Cosmos 2491 03 Aug 22:36:48 22:44:17 31° 58° (ENE) 22:51:54 435.465 / 435.565
UNISAT 6 03 Aug 22:52:32 22:53:48 11° 83° (E) 22:55:21 437.425
AUBIESAT-1 03 Aug 22:52:44 22:56:22 22° 95° (E) 23:00:00 437.475
COMPASS 1 03 Aug 22:53:35 22:56:41 19° 271° (W) 22:59:41 437.405
DELFI C3 03 Aug 22:55:28 22:59:28 53° 260° (W) 23:03:30 145.870
VELOX 1 03 Aug 23:00:15 23:04:13 34° 66° (ENE) 23:08:13 145.980
HO-68 03 Aug 23:02:08 23:07:31 22° 274° (W) 23:12:40 435.675
ISS 03 Aug 23:07:25 23:10:39 74° 166° (SSE) 23:13:56 145.825
ZACube-1 03 Aug 23:08:01 23:12:08 46° 262° (W) 23:16:21 437.345
YUBILEINY 03 Aug 23:08:53 23:12:46 14° 70° (ENE) 23:17:11 435.215
SEEDS 03 Aug 23:16:41 23:17:17 10° 277° (W) 23:17:39 437.485
ESTCUBE 1 03 Aug 23:23:47 23:28:02 41° 68° (ENE) 23:32:19 437.505/2401.250
BEESAT 3 03 Aug 23:27:44 23:30:44 20° 116° (ESE) 23:33:49 437.485
FUNcube-1 03 Aug 23:28:46 23:32:34 31° 266° (W) 23:36:26 145.935
HUMSAT D 03 Aug 23:29:20 23:33:29 61° 259° (W) 23:37:42 437.325/437.525
TIGRISAT 03 Aug 23:32:39 23:36:29 25° 92° (E) 23:40:24 435.000
ANTELSAT 03 Aug 23:35:43 23:39:43 27° 93° (E) 23:43:46 437.575/2403.000
UKube-1 03 Aug 23:37:04 23:41:23 75° 255° (WSW) 23:45:44 .
Oscar 11 03 Aug 23:37:24 23:40:25 18° 272° (W) 23:43:19 145.826/435.025
UWE-3 03 Aug 23:40:14 23:43:24 20° 271° (W) 23:46:33 435.000/436.395/437.385
PHONESAT 2.4 03 Aug 23:45:03 23:46:21 12° 194° (SSW) 23:47:35 2401.200-2431.200
POLYITAN 1 03 Aug 23:47:37 23:49:53 14° 87° (E) 23:52:18 437.675
AIST 1 03 Aug 23:50:32 23:54:50 88° 261° (W) 23:59:06
AISAT 03 Aug 23:58:07 00:02:30 70° 257° (WSW) 00:06:55 437.250
